W5GFI Weather Reports


time (UTC)temp
F
wind
direction
speed
knots
gust
knots
rain 1hr
in
rain 24hr
in
rain mn
in
humidity
%
barometer
mb
20260506020024 48 41 1.7 7.8 0.00 1.48 1.30 86 1011.7
20260506014512 48 42 2.6 8.7 0.00 1.48 1.30 87 1011.2
20260506013044 48 25 1.7 9.6 0.00 1.48 1.30 87 1011.0
20260506011556 49 317 0.9 5.2 0.00 1.48 1.30 87 1011.0
20260506010009 49 38 0.9 5.2 0.01 1.48 1.30 86 1010.5
20260506004600 49 49 2.6 10.4 0.01 1.48 1.30 85 1010.5
20260506003029 49 124 0.9 10.4 0.01 1.48 1.30 85 1010.8
20260506001504 49 45 2.6 10.4 0.01 1.48 1.30 85 1010.4
20260505234536 49 58 1.7 8.7 0.01 1.47 1.29 83 1010.1
20260505233101 49 32 1.7 12.2 0.02 1.47 1.29 82 1010.4
20260505231532 49 13 1.7 8.7 0.02 1.47 1.29 83 1009.9
20260505230020 49 168 2.6 8.7 0.02 1.47 1.29 82 1009.4
20260505224547 51 174 1.7 13.0 0.01 1.46 1.28 79 1009.3
20260505223024 51 192 3.5 11.3 0.00 1.45 1.27 74 1009.4
20260505221504 52 324 4.3 13.9 0.00 1.45 1.27 73 1009.1
20260505220043 52 10 2.6 11.3 0.00 1.45 1.27 72 1008.9
20260505214528 52 67 4.3 16.5 0.00 1.45 1.27 71 1008.8
20260505213009 53 64 3.5 10.4 0.00 1.45 1.27 71 1008.9
20260505211546 53 4 2.6 12.2 0.00 1.45 1.27 71 1008.7
20260505210030 53 270 4.3 11.3 0.00 1.45 1.27 70 1008.5
20260505204510 54 58 4.3 10.4 0.00 1.45 1.27 73 1008.3
20260505203056 54 43 5.2 15.6 0.00 1.45 1.27 73 1008.5
20260505201530 54 359 6.1 10.4 0.00 1.45 1.27 73 1008.4
20260505194548 53 15 2.6 9.6 0.00 1.45 1.27 78 1008.2
20260505193024 53 359 3.5 14.8 0.00 1.45 1.27 78 1008.2
20260505191607 53 35 3.5 15.6 0.00 1.45 1.27 81 1008.1
20260505190036 53 80 3.5 9.6 0.01 1.45 1.27 82 1008.1
20260505184518 54 359 3.5 11.3 0.01 1.45 1.27 82 1007.6
20260505183053 54 27 4.3 17.4 0.01 1.45 1.27 82 1007.6
20260505181523 54 8 4.3 12.2 0.01 1.45 1.27 83 1007.5
20260505180005 55 118 3.5 12.2 0.00 1.44 1.26 81 1007.9
20260505174542 55 46 1.7 9.6 0.00 1.44 1.26 82 1007.4
20260505173014 55 41 3.5 13.0 0.00 1.44 1.26 82 1007.0
20260505171608 55 14 2.6 14.8 0.00 1.44 1.26 82 1006.8
20260505170032 55 51 2.6 13.0 0.00 1.44 1.26 84 1006.9
20260505164505 55 20 4.3 13.9 0.00 1.44 1.26 84 1006.4
20260505163041 54 354 2.6 13.9 0.00 1.44 1.26 86 1006.4
20260505161526 54 359 3.5 12.2 0.00 1.44 1.26 87 1006.3
20260505160104 54 359 2.6 15.6 0.00 1.44 1.26 88 1006.5
20260505153051 56 324 2.6 7.8 0.00 1.44 1.26 87 1005.9
20260505151534 57 10 3.5 9.6 0.00 1.44 1.26 86 1006.0
20260505130106 62 17 2.6 8.7 0.00 1.44 1.26 89 1004.8
20260505124542 62 127 0.9 6.1 0.00 1.44 1.26 89 1004.7
20260505123008 62 35 1.7 7.0 0.00 1.44 1.26 89 1004.4
20260505121623 62 39 1.7 4.3 0.00 1.44 1.26 90 1004.4
20260505120029 62 91 0.9 5.2 0.00 1.44 1.26 90 1003.9
20260505114503 62 65 0.9 8.7 0.00 1.44 1.26 90 1003.8
20260505113046 62 74 0.9 4.3 0.00 1.44 1.26 91 1003.6
20260505111515 62 89 1.7 3.5 0.00 1.44 1.26 90 1003.6
20260505101543 61 134 1.7 8.7 0.00 1.44 1.26 92 1002.5
20260505100035 61 359 1.7 7.0 0.00 1.44 1.26 92 1002.9
20260505094601 61 97 0.9 8.7 0.00 1.44 1.26 93 1003.1
20260505093036 60 110 0.9 7.8 0.00 1.44 1.26 93 1003.5
20260505091527 60 93 0.9 8.7 0.00 1.44 1.26 94 1003.6
20260505084532 59 83 2.6 6.1 0.00 1.44 1.26 94 1003.8
20260505083022 59 144 2.6 7.8 0.00 1.44 1.26 93 1003.7
20260505081552 60 93 3.5 9.6 0.00 1.44 1.26 94 1003.3
20260505080027 60 194 2.6 12.2 0.00 1.44 1.26 95 1003.5
20260505074556 59 106 1.7 7.0 0.03 1.44 1.26 94 1004.0
20260505073052 58 55 0.9 3.5 0.23 1.44 1.26 94 1004.3
20260505071517 58 18 0.9 7.0 0.43 1.44 1.26 94 1004.5
20260505070108 58 105 0.9 4.3 0.72 1.44 1.26 93 1005.4
20260505064533 58 64 1.7 6.1 1.21 1.40 1.22 92 1006.2
20260505063007 59 11 1.7 9.6 0.99 1.18 1.00 92 1006.2
20260505061546 60 10 2.6 11.3 0.84 1.02 0.84 89 1006.4
20260505060024 63 354 7.8 19.1 0.55 0.68 0.50 90 1005.9
20260505054619 64 359 9.6 17.4 0.15 0.19 0.01 87 1002.7
20260505053030 64 97 1.7 6.1 0.16 0.19 0.01 86 1002.7
20260505051533 64 116 3.5 9.6 0.18 0.18 0.18 85 1003.1
20260505041611 71 137 1.7 5.2 0.00 0.00 0.00 63 1004.2
20260505040041 71 169 0.9 5.2 0.00 0.00 0.00 63 1003.5
20260505034517 71 222 0.9 6.1 0.00 0.00 0.00 63 1003.8
20260505033105 71 174 4.3 8.7 0.00 0.00 0.00 62 1003.9
20260505031541 71 170 3.5 8.7 0.00 0.00 0.00 63 1004.2
20260505030023 71 195 1.7 7.8 0.00 0.00 0.00 63 1004.2
20260505024618 71 181 0.9 5.2 0.00 0.00 0.00 63 1004.1
20260505023036 71 144 2.6 7.8 0.00 0.00 0.00 64 1004.3
20260505021520 72 140 1.7 6.1 0.00 0.00 0.00 63 1004.1